FW6148 Weather Reports


Display with metric or nautical units.
time (UTC)temp
F
wind
direction
speed
MPH
gust
MPH
rain 1hr
in
rain 24hr
in
rain mn
in
humidity
%
barometer
mb
20260507043038 40 249 2.0 5.0 0.00 0.00 0.00 55 1009.5
20260507042525 40 226 2.0 5.0 0.00 0.00 0.00 55 1009.5
20260507042025 40 248 1.0 5.0 0.00 0.00 0.00 54 1009.5
20260507041544 40 236 1.0 3.0 0.00 0.00 0.00 54 1009.5
20260507041025 41 0 0.0 5.0 0.00 0.00 0.00 55 1009.6
20260507040527 41 237 1.0 5.0 0.00 0.00 0.00 55 1009.6
20260507040037 42 227 2.0 7.0 0.00 0.00 0.00 54 1009.5
20260507035527 42 265 3.0 7.0 0.00 0.00 0.00 53 1009.5
20260507035025 42 243 4.0 7.0 0.00 0.00 0.00 54 1009.5
20260507034556 42 235 3.0 7.0 0.00 0.00 0.00 53 1009.6
20260507034024 42 248 3.0 7.0 0.00 0.00 0.00 54 1009.5
20260507033525 43 226 4.0 7.0 0.00 0.00 0.00 53 1009.5
20260507033057 43 245 4.0 7.0 0.00 0.00 0.00 53 1009.6
20260507032524 43 248 2.0 7.0 0.00 0.00 0.00 53 1009.7
20260507032024 43 236 4.0 6.0 0.00 0.00 0.00 52 1009.7
20260507031539 43 229 3.0 6.0 0.00 0.00 0.00 52 1009.6
20260507031025 43 242 3.0 5.0 0.00 0.00 0.00 52 1009.5
20260507030528 43 234 2.0 8.0 0.00 0.00 0.00 51 1009.5
20260507030039 44 240 3.0 8.0 0.00 0.00 0.00 51 1009.5
20260507025524 43 232 5.0 8.0 0.00 0.00 0.00 51 1009.6
20260507025025 43 234 5.0 7.0 0.00 0.00 0.00 52 1009.6
20260507024547 43 213 3.0 7.0 0.00 0.00 0.00 51 1009.6
20260507024025 43 234 4.0 10.0 0.00 0.00 0.00 52 1009.5
20260507023525 44 264 3.0 10.0 0.00 0.00 0.00 52 1009.6
20260507023038 44 218 3.0 7.0 0.00 0.00 0.00 51 1009.6
20260507022528 45 248 2.0 6.0 0.00 0.00 0.00 51 1009.6
20260507022030 45 242 2.0 5.0 0.00 0.00 0.00 50 1009.6
20260507021541 45 259 2.0 6.0 0.00 0.00 0.00 50 1009.7
20260507021025 46 259 2.0 6.0 0.00 0.00 0.00 50 1009.7
20260507020528 47 258 1.0 4.0 0.00 0.00 0.00 49 1009.7
20260507020039 48 258 1.0 4.0 0.00 0.00 0.00 47 1009.7
20260507015525 49 301 1.0 3.0 0.00 0.00 0.00 45 1009.8
20260507015026 50 0 0.0 3.0 0.00 0.00 0.00 44 1009.7
20260507014538 50 301 1.0 3.0 0.00 0.00 0.00 43 1009.8
20260507014025 51 307 0.0 3.0 0.00 0.00 0.00 42 1009.8
20260507013524 51 0 0.0 3.0 0.00 0.00 0.00 41 1009.8
20260507013040 52 308 1.0 4.0 0.00 0.00 0.00 43 1009.8
20260507012525 52 0 2.0 4.0 0.00 0.00 0.00 39 1009.9
20260507012025 52 310 3.0 4.0 0.00 0.00 0.00 37 1009.9
20260507011539 53 47 2.0 3.0 0.00 0.00 0.00 39 1010.0
20260507011026 54 360 2.0 3.0 0.00 0.00 0.00 37 1010.0
20260507010528 54 47 1.0 3.0 0.00 0.00 0.00 36 1010.1
20260507010043 55 360 1.0 3.0 0.00 0.00 0.00 35 1010.0
20260507005525 55 48 1.0 3.0 0.00 0.00 0.00 34 1010.1
20260507005025 56 48 1.0 3.0 0.00 0.00 0.00 35 1010.2
20260507004540 56 47 1.0 3.0 0.00 0.00 0.00 31 1010.3
20260507004025 56 48 0.0 3.0 0.00 0.00 0.00 32 1010.3
20260507003526 55 0 1.0 3.0 0.00 0.00 0.00 31 1010.4
20260507003039 55 47 0.0 4.0 0.00 0.00 0.00 31 1010.4
20260507002525 54 0 0.0 8.0 0.00 0.00 0.00 31 1010.5
20260507002025 54 47 2.0 8.0 0.00 0.00 0.00 32 1010.6
20260507001603 55 360 0.0 4.0 0.00 0.00 0.00 32 1010.6
20260507001025 55 53 2.0 4.0 0.00 0.00 0.00 31 1010.7
20260507000525 55 360 0.0 8.0 0.00 0.00 0.00 31 1010.8
20260507000038 54 56 1.0 8.0 0.00 0.00 0.00 36 1010.9
20260506235526 54 56 4.0 8.0 0.00 0.00 0.00 34 1011.0
20260506235028 53 44 4.0 8.0 0.00 0.00 0.00 34 1011.0
20260506234549 53 78 1.0 8.0 0.00 0.00 0.00 34 1011.0
20260506234025 53 63 4.0 9.0 0.00 0.00 0.00 35 1011.0
20260506233524 53 360 4.0 9.0 0.00 0.00 0.00 36 1011.0
20260506233040 54 51 5.0 9.0 0.00 0.00 0.00 37 1011.0
20260506232524 54 50 2.0 9.0 0.00 0.00 0.00 35 1011.0
20260506232029 54 51 3.0 9.0 0.00 0.00 0.00 35 1011.1
20260506231538 54 59 3.0 9.0 0.00 0.00 0.00 36 1011.1
20260506231024 55 40 4.0 9.0 0.00 0.00 0.00 34 1011.2
20260506230523 56 53 4.0 9.0 0.00 0.00 0.00 31 1011.2
20260506230039 56 360 1.0 6.0 0.00 0.00 0.00 32 1011.2
20260506225526 56 333 2.0 6.0 0.00 0.00 0.00 32 1011.4
20260506225027 56 360 2.0 8.0 0.00 0.00 0.00 34 1011.4
20260506224546 56 314 3.0 9.0 0.00 0.00 0.00 31 1011.4
20260506224026 55 28 4.0 9.0 0.00 0.00 0.00 32 1011.5
20260506223527 56 9 1.0 6.0 0.00 0.00 0.00 34 1011.6
20260506223054 56 174 3.0 6.0 0.00 0.00 0.00 31 1011.6
20260506222527 56 146 0.0 8.0 0.00 0.00 0.00 32 1011.6
20260506222026 56 140 3.0 8.0 0.00 0.00 0.00 35 1011.7
20260506221541 55 360 0.0 5.0 0.00 0.00 0.00 35 1011.7
20260506221026 54 343 1.0 10.0 0.00 0.00 0.00 36 1011.7
20260506220527 54 325 4.0 10.0 0.00 0.00 0.00 33 1011.8
20260506220051 54 55 3.0 7.0 0.00 0.00 0.00 33 1011.8
20260506215526 55 360 2.0 7.0 0.00 0.00 0.00 32 1011.9
20260506215026 54 0 2.0 6.0 0.00 0.00 0.00 38 1012.0
20260506214539 54 0 2.0 7.0 0.00 0.00 0.00 34 1012.1
20260506214030 53 360 4.0 8.0 0.00 0.00 0.00 34 1012.3
20260506213527 53 186 4.0 9.0 0.00 0.00 0.00 36 1012.3
20260506213037 53 227 1.0 9.0 0.00 0.00 0.00 35 1012.4
20260506212527 53 227 5.0 9.0 0.00 0.00 0.00 34 1012.5
20260506212027 53 258 3.0 11.0 0.00 0.00 0.00 35 1012.8
20260506211542 53 0 1.0 11.0 0.00 0.00 0.00 36 1012.9
20260506211027 52 360 1.0 6.0 0.00 0.00 0.00 38 1013.0
20260506210527 53 25 3.0 6.0 0.00 0.00 0.00 36 1013.0
20260506210037 52 360 0.0 6.0 0.00 0.00 0.00 34 1013.2
20260506205527 52 0 2.0 8.0 0.00 0.00 0.00 36 1013.3
20260506205027 52 48 4.0 8.0 0.00 0.00 0.00 36 1013.4
20260506204541 51 159 4.0 8.0 0.00 0.00 0.00 36 1013.3
20260506204028 51 96 2.0 10.0 0.00 0.00 0.00 40 1013.4
20260506203526 50 125 3.0 10.0 0.00 0.00 0.00 35 1013.5
20260506203040 51 46 3.0 10.0 0.00 0.00 0.00 34 1013.4
20260506202527 51 38 2.0 10.0 0.00 0.00 0.00 38 1013.5
20260506202028 51 37 2.0 10.0 0.00 0.00 0.00 35 1013.5
20260506201539 51 41 4.0 10.0 0.00 0.00 0.00 35 1013.5
20260506201025 52 42 2.0 7.0 0.00 0.00 0.00 42 1013.5
20260506200524 51 252 4.0 7.0 0.00 0.00 0.00 38 1013.6
20260506200037 51 289 1.0 6.0 0.00 0.00 0.00 35 1013.8
20260506195524 51 9 3.0 10.0 0.00 0.00 0.00 35 1013.9
20260506195025 51 333 3.0 13.0 0.00 0.00 0.00 33 1014.0
20260506194546 51 26 6.0 13.0 0.00 0.00 0.00 38 1014.0
20260506194028 52 46 4.0 11.0 0.00 0.00 0.00 39 1014.0
20260506193525 51 123 2.0 8.0 0.00 0.00 0.00 36 1014.1
20260506193048 51 50 2.0 5.0 0.00 0.00 0.00 37 1014.2
20260506192525 51 299 1.0 8.0 0.00 0.00 0.00 34 1014.3
20260506192025 51 360 2.0 8.0 0.00 0.00 0.00 39 1014.3
20260506191539 51 222 4.0 8.0 0.00 0.00 0.00 35 1014.3
20260506191028 51 252 2.0 8.0 0.00 0.00 0.00 37 1014.4
20260506190524 50 269 3.0 11.0 0.00 0.00 0.00 37 1014.4
20260506190039 50 306 3.0 11.0 0.00 0.00 0.00 36 1014.5
20260506185527 50 232 4.0 11.0 0.00 0.00 0.00 34 1014.6
20260506185025 50 249 2.0 10.0 0.00 0.00 0.00 37 1014.7
20260506184543 49 301 4.0 10.0 0.00 0.00 0.00 36 1014.7
20260506184027 49 342 4.0 10.0 0.00 0.00 0.00 36 1014.9
20260506183527 49 0 2.0 9.0 0.00 0.00 0.00 34 1015.1
20260506183042 49 318 3.0 9.0 0.00 0.00 0.00 37 1015.2
20260506182525 49 347 3.0 9.0 0.00 0.00 0.00 35 1015.3
20260506182028 49 336 2.0 9.0 0.00 0.00 0.00 37 1015.2
20260506181550 49 104 4.0 9.0 0.00 0.00 0.00 40 1015.3
20260506181024 48 0 2.0 6.0 0.00 0.00 0.00 39 1015.4
20260506180526 48 257 2.0 6.0 0.00 0.00 0.00 35 1015.5
20260506180040 47 169 3.0 8.0 0.00 0.00 0.00 35 1015.6
20260506175530 47 360 2.0 9.0 0.00 0.00 0.00 35 1015.7
20260506175024 48 167 5.0 10.0 0.00 0.00 0.00 37 1015.8
20260506174537 47 129 3.0 11.0 0.00 0.00 0.00 36 1015.8
20260506174025 47 107 5.0 14.0 0.00 0.00 0.00 40 1016.0
20260506173525 48 360 7.0 14.0 0.00 0.00 0.00 36 1016.0
20260506173047 47 93 7.0 14.0 0.00 0.00 0.00 39 1016.1
20260506172526 47 51 3.0 8.0 0.00 0.00 0.00 38 1016.1
20260506172024 47 341 1.0 11.0 0.00 0.00 0.00 38 1016.1
20260506171549 46 116 3.0 16.0 0.00 0.00 0.00 36 1016.2
20260506171025 46 360 8.0 16.0 0.00 0.00 0.00 40 1016.3
20260506170525 47 360 7.0 13.0 0.00 0.00 0.00 38 1016.3
20260506170042 46 49 7.0 12.0 0.00 0.00 0.00 39 1016.3
20260506165525 45 360 6.0 12.0 0.00 0.00 0.00 40 1016.4
20260506165025 45 103 7.0 14.0 0.00 0.00 0.00 39 1016.4
20260506164538 45 360 6.0 14.0 0.00 0.00 0.00 37 1016.4
20260506164028 45 360 4.0 12.0 0.00 0.00 0.00 40 1016.3
20260506163524 45 83 5.0 12.0 0.00 0.00 0.00 39 1016.4
20260506163039 45 93 3.0 12.0 0.00 0.00 0.00 39 1016.4
20260506162525 45 360 5.0 12.0 0.00 0.00 0.00 39 1016.6
20260506162025 45 360 7.0 15.0 0.00 0.00 0.00 41 1016.6
20260506161543 44 360 7.0 15.0 0.00 0.00 0.00 40 1016.6
20260506161024 44 360 5.0 13.0 0.00 0.00 0.00 40 1016.8
20260506160524 44 360 4.0 13.0 0.00 0.00 0.00 41 1016.8
20260506160057 44 360 5.0 12.0 0.00 0.00 0.00 43 1016.8
20260506155523 43 78 6.0 16.0 0.00 0.00 0.00 39 1016.9
20260506155024 43 101 10.0 16.0 0.00 0.00 0.00 41 1017.0
20260506154548 43 103 7.0 13.0 0.00 0.00 0.00 42 1017.0
20260506154025 42 110 4.0 13.0 0.00 0.00 0.00 44 1017.2
20260506153525 43 78 6.0 13.0 0.00 0.00 0.00 44 1017.3
20260506153037 42 53 6.0 13.0 0.00 0.00 0.00 43 1017.2
20260506152524 42 15 4.0 11.0 0.00 0.00 0.00 44 1017.2
20260506152024 42 61 5.0 11.0 0.00 0.00 0.00 45 1017.2
20260506151537 42 115 4.0 9.0 0.00 0.00 0.00 45 1017.3
20260506151024 41 52 3.0 9.0 0.00 0.00 0.00 43 1017.4
20260506150524 41 0 1.0 7.0 0.00 0.00 0.00 47 1017.3
20260506150036 41 117 2.0 8.0 0.00 0.00 0.00 45 1017.3
20260506145525 41 173 4.0 8.0 0.00 0.00 0.00 45 1017.4
20260506145025 40 360 3.0 6.0 0.00 0.00 0.00 48 1017.5
20260506144543 40 360 3.0 5.0 0.00 0.00 0.00 49 1017.5
20260506144024 39 0 0.0 5.0 0.00 0.00 0.00 48 1017.6
20260506143525 39 360 0.0 4.0 0.00 0.00 0.00 50 1017.6
20260506143039 38 0 1.0 4.0 0.00 0.00 0.00 52 1017.7
20260506142525 38 119 2.0 4.0 0.00 0.00 0.00 51 1017.8
20260506142025 38 360 1.0 4.0 0.00 0.00 0.00 52 1017.7
20260506141538 38 146 0.0 4.0 0.00 0.00 0.00 52 1017.8
20260506141027 37 0 0.0 0.0 0.00 0.00 0.00 54 1017.8
20260506140524 36 0 0.0 0.0 0.00 0.00 0.00 57 1017.8
20260506140038 35 0 0.0 0.0 0.00 0.00 0.00 60 1017.9
20260506135524 33 0 0.0 0.0 0.00 0.00 0.00 65 1017.8
20260506135025 32 0 0.0 0.0 0.00 0.00 0.00 68 1017.8
20260506134535 31 0 0.0 0.0 0.00 0.00 0.00 73 1017.8
20260506134024 30 0 0.0 0.0 0.00 0.00 0.00 74 1017.9
20260506133527 28 0 0.0 0.0 0.00 0.00 0.00 75 1017.8
20260506133040 27 0 0.0 0.0 0.00 0.00 0.00 77 1017.9
20260506132525 25 0 0.0 0.0 0.00 0.00 0.00 80 1017.8
20260506132024 23 0 0.0 0.0 0.00 0.00 0.00 80 1017.8
20260506131554 22 0 0.0 0.0 0.00 0.00 0.00 80 1017.7
20260506131024 21 0 0.0 0.0 0.00 0.00 0.00 80 1017.8
20260506130527 21 0 0.0 0.0 0.00 0.00 0.00 80 1017.8
20260506130041 20 0 0.0 0.0 0.00 0.00 0.00 80 1017.8
20260506125526 20 0 0.0 1.0 0.00 0.00 0.00 81 1017.7
20260506125025 19 0 0.0 3.0 0.00 0.00 0.00 81 1017.6
20260506124538 19 0 0.0 3.0 0.00 0.00 0.00 81 1017.6
20260506124024 18 0 0.0 3.0 0.00 0.00 0.00 80 1017.7
20260506123526 18 360 0.0 2.0 0.00 0.00 0.00 79 1017.6
20260506123038 18 360 1.0 2.0 0.00 0.00 0.00 80 1017.5
20260506122524 18 360 1.0 3.0 0.00 0.00 0.00 80 1017.5
20260506122025 18 0 1.0 3.0 0.00 0.00 0.00 82 1017.6
20260506121542 17 360 1.0 3.0 0.00 0.00 0.00 82 1017.6
20260506121025 17 360 1.0 3.0 0.00 0.00 0.00 84 1017.6
20260506120527 16 0 0.0 0.0 0.00 0.00 0.00 82 1017.4
20260506120040 16 0 0.0 0.0 0.00 0.00 0.00 80 1017.4
20260506115525 17 0 0.0 0.0 0.00 0.00 0.00 81 1017.3
20260506115023 17 0 0.0 0.0 0.00 0.00 0.00 81 1017.2
20260506114538 17 0 0.0 0.0 0.00 0.00 0.00 81 1017.3
20260506114026 16 0 0.0 2.0 0.00 0.00 0.00 81 1017.2
20260506113525 17 0 0.0 2.0 0.00 0.00 0.00 79 1017.2
20260506113038 17 360 0.0 3.0 0.00 0.00 0.00 77 1017.2
20260506112524 18 0 1.0 3.0 0.00 0.00 0.00 79 1017.1
20260506112024 18 360 1.0 3.0 0.00 0.00 0.00 81 1017.2
20260506111538 17 360 1.0 3.0 0.00 0.00 0.00 79 1017.1
20260506111028 18 0 0.0 2.0 0.00 0.00 0.00 77 1017.2
20260506110527 18 0 1.0 2.0 0.00 0.00 0.00 80 1017.2
20260506110041 18 360 1.0 3.0 0.00 0.00 0.00 80 1017.2
20260506105524 18 360 1.0 3.0 0.00 0.00 0.00 79 1017.3
20260506105028 18 360 1.0 4.0 0.00 0.00 0.00 80 1017.3
20260506104547 18 360 1.0 4.0 0.00 0.00 0.00 81 1017.3
20260506104025 18 360 2.0 3.0 0.00 0.00 0.00 82 1017.4
20260506103524 17 360 1.0 3.0 0.00 0.00 0.00 80 1017.2
20260506103040 17 360 0.0 3.0 0.00 0.00 0.00 81 1017.3
20260506102524 18 360 1.0 3.0 0.00 0.00 0.00 78 1017.3
20260506102023 18 0 1.0 4.0 0.00 0.00 0.00 82 1017.4
20260506101538 17 360 1.0 4.0 0.00 0.00 0.00 82 1017.3
20260506101024 17 360 2.0 4.0 0.00 0.00 0.00 80 1017.4
20260506100525 17 0 0.0 0.0 0.00 0.00 0.00 78 1017.3
20260506100045 18 0 0.0 2.0 0.00 0.00 0.00 79 1017.4
20260506095527 18 0 0.0 2.0 0.00 0.00 0.00 80 1017.5
20260506095025 18 360 1.0 3.0 0.00 0.00 0.00 81 1017.4
20260506094554 18 360 1.0 3.0 0.00 0.00 0.00 80 1017.3
20260506094028 18 360 1.0 3.0 0.00 0.00 0.00 79 1017.4
20260506093524 19 360 1.0 3.0 0.00 0.00 0.00 78 1017.3
20260506093041 19 360 1.0 3.0 0.00 0.00 0.00 78 1017.4
20260506092524 19 360 1.0 3.0 0.00 0.00 0.00 79 1017.4
20260506092026 19 360 1.0 4.0 0.00 0.00 0.00 79 1017.4
20260506091539 19 360 2.0 4.0 0.00 0.00 0.00 79 1017.5
20260506091025 19 360 1.0 4.0 0.00 0.00 0.00 79 1017.5
20260506090524 19 360 2.0 4.0 0.00 0.00 0.00 81 1017.5
20260506090038 18 360 1.0 4.0 0.00 0.00 0.00 81 1017.5
20260506085524 18 0 0.0 2.0 0.00 0.00 0.00 80 1017.5
20260506085024 18 360 1.0 2.0 0.00 0.00 0.00 80 1017.6
20260506084542 18 360 1.0 3.0 0.00 0.00 0.00 78 1017.6
20260506084024 19 0 1.0 3.0 0.00 0.00 0.00 80 1017.6
20260506083524 19 360 1.0 4.0 0.00 0.00 0.00 78 1017.6
20260506083038 19 360 1.0 4.0 0.00 0.00 0.00 78 1017.6
20260506082530 20 360 2.0 4.0 0.00 0.00 0.00 78 1017.5
20260506082027 20 360 2.0 4.0 0.00 0.00 0.00 79 1017.6
20260506081544 20 360 2.0 4.0 0.00 0.00 0.00 79 1017.6
20260506081025 20 360 2.0 4.0 0.00 0.00 0.00 79 1017.6
20260506080527 20 360 0.0 3.0 0.00 0.00 0.00 79 1017.6
20260506073525 20 360 1.0 3.0 0.00 0.00 0.00 76 1017.8
20260506073040 21 360 1.0 3.0 0.00 0.00 0.00 76 1017.8
20260506072527 21 360 1.0 3.0 0.00 0.00 0.00 78 1017.9
20260506072024 21 360 1.0 3.0 0.00 0.00 0.00 78 1017.9
20260506071542 21 360 2.0 3.0 0.00 0.00 0.00 78 1018.0
20260506071024 21 360 1.0 4.0 0.00 0.00 0.00 79 1017.9
20260506070524 20 360 2.0 4.0 0.00 0.00 0.00 79 1017.9
20260506062024 21 360 1.0 3.0 0.00 0.00 0.00 78 1017.9
20260506061539 21 360 1.0 3.0 0.00 0.00 0.00 76 1017.9
20260506061027 22 360 1.0 3.0 0.00 0.00 0.00 75 1017.8
20260506060527 22 360 2.0 3.0 0.00 0.00 0.00 76 1017.9
20260506051024 24 360 1.0 4.0 0.00 0.00 0.00 72 1017.7
20260506050524 25 360 2.0 4.0 0.00 0.00 0.00 71 1017.6
20260506045025 26 360 2.0 4.0 0.00 0.00 0.00 70 1017.6
20260506044542 26 360 2.0 4.0 0.00 0.00 0.00 69 1017.6
20260506044023 26 360 2.0 4.0 0.00 0.00 0.00 69 1017.5
20260506043524 27 360 2.0 3.0 0.00 0.00 0.00 70 1017.5